owner,sensor,date,latitude,longitude,vertical_datum,wind_speed,wind_to_direction,wind_speed_of_gust,qcFlag 
COMPS,ioos:station:USF.COMPS:NFB:1,2014-05-28T15:00:00Z,25.0840,-81.0960,6.0,6.33,138.97,7.05,'1111122,1111122,1111122' 
COMPS,ioos:station:USF.COMPS:NFB:1,2014-05-28T15:06:00Z,25.0840,-81.0960,6.0,5.97,134.94,7.05,'1111122,1111122,1111122' 
COMPS,ioos:station:USF.COMPS:NFB:1,2014-05-28T15:12:00Z,25.0840,-81.0960,6.0,6.05,136.93,6.95,'1111122,1111122,1111122' 
COMPS,ioos:station:USF.COMPS:NFB:1,2014-05-28T15:18:00Z,25.0840,-81.0960,6.0,6.05,138.26,6.95,'1111122,1111122,1111122' 
COMPS,ioos:station:USF.COMPS:NFB:1,2014-05-28T15:24:00Z,25.0840,-81.0960,6.0,5.9,136.06,7.35,'1111122,1111122,1111122' 
COMPS,ioos:station:USF.COMPS:NFB:1,2014-05-28T15:30:00Z,25.0840,-81.0960,6.0,5.99,131.93,6.56,'1111122,1111122,1111122' 
COMPS,ioos:station:USF.COMPS:NFB:1,2014-05-28T15:36:00Z,25.0840,-81.0960,6.0,6.04,132.48,7.25,'1111122,1111122,1111122' 
COMPS,ioos:station:USF.COMPS:NFB:1,2014-05-28T15:42:00Z,25.0840,-81.0960,6.0,5.81,129.13,7.44,'1111122,1111122,1111122' 
COMPS,ioos:station:USF.COMPS:NFB:1,2014-05-28T15:48:00Z,25.0840,-81.0960,6.0,5.47,143.9,6.27,'1111122,1111122,1111122' 
COMPS,ioos:station:USF.COMPS:NFB:1,2014-05-28T15:54:00Z,25.0840,-81.0960,6.0,5.86,150.43,6.95,'1111122,1111122,1111122' 
COMPS,ioos:station:USF.COMPS:NFB:1,2014-05-28T16:00:00Z,25.0840,-81.0960,6.0,5.73,148.92,6.66,'1111122,1111122,1111122' 
COMPS,ioos:station:USF.COMPS:NFB:1,2014-05-28T16:06:00Z,25.0840,-81.0960,6.0,6.66,151.5,7.54,'1111122,1111122,1111122' 
COMPS,ioos:station:USF.COMPS:NFB:1,2014-05-28T16:12:00Z,25.0840,-81.0960,6.0,6.23,130.04,7.54,'1111122,1111122,1111122' 
COMPS,ioos:station:USF.COMPS:NFB:1,2014-05-28T16:18:00Z,25.0840,-81.0960,6.0,5.48,117.64,6.56,'1111122,1111122,1111122' 
COMPS,ioos:station:USF.COMPS:NFB:1,2014-05-28T16:24:00Z,25.0840,-81.0960,6.0,4.8,124.89,5.39,'1111122,1111122,1111122' 
COMPS,ioos:station:USF.COMPS:NFB:1,2014-05-28T16:30:00Z,25.0840,-81.0960,6.0,5.13,129.76,5.87,'1111122,1111122,1111122' 
COMPS,ioos:station:USF.COMPS:NFB:1,2014-05-28T16:36:00Z,25.0840,-81.0960,6.0,5.01,130.18,5.68,'1111122,1111122,1111122' 
COMPS,ioos:station:USF.COMPS:NFB:1,2014-05-28T16:42:00Z,25.0840,-81.0960,6.0,5.26,137.22,6.07,'1111122,1111122,1111122' 
COMPS,ioos:station:USF.COMPS:NFB:1,2014-05-28T16:48:00Z,25.0840,-81.0960,6.0,5.81,141.26,6.76,'1111122,1111122,1111122' 
COMPS,ioos:station:USF.COMPS:NFB:1,2014-05-28T16:54:00Z,25.0840,-81.0960,6.0,6.09,139.69,7.35,'1111122,1111122,1111122' 
COMPS,ioos:station:USF.COMPS:NFB:1,2014-05-28T17:00:00Z,25.0840,-81.0960,6.0,7.18,149.4,8.13,'1111122,1111122,1111122' 
COMPS,ioos:station:USF.COMPS:NFB:1,2014-05-28T17:06:00Z,25.0840,-81.0960,6.0,7.12,145.02,8.62,'1111122,1111122,1111122' 
COMPS,ioos:station:USF.COMPS:NFB:1,2014-05-28T17:12:00Z,25.0840,-81.0960,6.0,6.5,147.96,7.64,'1111122,1111122,1111122' 
COMPS,ioos:station:USF.COMPS:NFB:1,2014-05-28T17:18:00Z,25.0840,-81.0960,6.0,6.31,150.1,7.15,'1111122,1111122,1111122' 
COMPS,ioos:station:USF.COMPS:NFB:1,2014-05-28T17:24:00Z,25.0840,-81.0960,6.0,6.07,158.79,7.15,'1111122,1111122,1111122' 
COMPS,ioos:station:USF.COMPS:NFB:1,2014-05-28T17:30:00Z,25.0840,-81.0960,6.0,5.97,159.16,6.66,'1111122,1111122,1111122' 
COMPS,ioos:station:USF.COMPS:NFB:1,2014-05-28T17:36:00Z,25.0840,-81.0960,6.0,5.57,147.41,6.76,'1111122,1111122,1111122' 
COMPS,ioos:station:USF.COMPS:NFB:1,2014-05-28T17:42:00Z,25.0840,-81.0960,6.0,5.98,142.56,7.64,'1111122,1111122,1111122' 
COMPS,ioos:station:USF.COMPS:NFB:1,2014-05-28T17:48:00Z,25.0840,-81.0960,6.0,6.41,134.52,8.52,'1111122,1111122,1111122' 
COMPS,ioos:station:USF.COMPS:NFB:1,2014-05-28T17:54:00Z,25.0840,-81.0960,6.0,6.44,126.36,7.35,'1111122,1111122,1111122' 
COMPS,ioos:station:USF.COMPS:NFB:1,2014-05-28T18:00:00Z,25.0840,-81.0960,6.0,6.66,128.4,8.03,'1111122,1111122,1111122' 
COMPS,ioos:station:USF.COMPS:NFB:1,2014-05-28T18:06:00Z,25.0840,-81.0960,6.0,7.28,135.37,8.62,'1111122,1111122,1111122' 
COMPS,ioos:station:USF.COMPS:NFB:1,2014-05-28T18:12:00Z,25.0840,-81.0960,6.0,6.68,137.1,7.54,'1111122,1111122,1111122' 
COMPS,ioos:station:USF.COMPS:NFB:1,2014-05-28T18:18:00Z,25.0840,-81.0960,6.0,6.54,139.2,7.74,'1111122,1111122,1111122' 
COMPS,ioos:station:USF.COMPS:NFB:1,2014-05-28T18:24:00Z,25.0840,-81.0960,6.0,7.16,143.78,8.72,'1111122,1111122,1111122' 
COMPS,ioos:station:USF.COMPS:NFB:1,2014-05-28T18:30:00Z,25.0840,-81.0960,6.0,6.9,143.48,8.52,'1111122,1111122,1111122' 
COMPS,ioos:station:USF.COMPS:NFB:1,2014-05-28T18:36:00Z,25.0840,-81.0960,6.0,6.41,142.28,7.83,'1111122,1111122,1111122' 
COMPS,ioos:station:USF.COMPS:NFB:1,2014-05-28T18:42:00Z,25.0840,-81.0960,6.0,6.26,142.3,7.15,'1111122,1111122,1111122' 
COMPS,ioos:station:USF.COMPS:NFB:1,2014-05-28T18:48:00Z,25.0840,-81.0960,6.0,6.26,140.44,7.44,'1111122,1111122,1111122' 
COMPS,ioos:station:USF.COMPS:NFB:1,2014-05-28T18:54:00Z,25.0840,-81.0960,6.0,5.4,139.83,6.46,'1111122,1111122,1111122' 
COMPS,ioos:station:USF.COMPS:NFB:1,2014-05-28T19:00:00Z,25.0840,-81.0960,6.0,5.45,142.66,6.56,'1111122,1111122,1111122' 
COMPS,ioos:station:USF.COMPS:NFB:1,2014-05-28T19:06:00Z,25.0840,-81.0960,6.0,5.31,144.32,6.37,'1111122,1111122,1111122' 
COMPS,ioos:station:USF.COMPS:NFB:1,2014-05-28T19:12:00Z,25.0840,-81.0960,6.0,5.43,148.4,6.17,'1111122,1111122,1111122' 
COMPS,ioos:station:USF.COMPS:NFB:1,2014-05-28T19:18:00Z,25.0840,-81.0960,6.0,5.2,140.03,6.85,'1111122,1111122,1111122' 
COMPS,ioos:station:USF.COMPS:NFB:1,2014-05-28T19:24:00Z,25.0840,-81.0960,6.0,5.39,144.25,6.37,'1111122,1111122,1111122' 
COMPS,ioos:station:USF.COMPS:NFB:1,2014-05-28T19:30:00Z,25.0840,-81.0960,6.0,5.08,143.1,5.97,'1111122,1111122,1111122' 
COMPS,ioos:station:USF.COMPS:NFB:1,2014-05-28T19:36:00Z,25.0840,-81.0960,6.0,5.09,142.79,6.07,'1111122,1111122,1111122' 
COMPS,ioos:station:USF.COMPS:NFB:1,2014-05-28T19:42:00Z,25.0840,-81.0960,6.0,5.12,142.6,5.97,'1111122,1111122,1111122' 
COMPS,ioos:station:USF.COMPS:NFB:1,2014-05-28T19:48:00Z,25.0840,-81.0960,6.0,4.87,141.83,5.68,'1111122,1111122,1111122' 
COMPS,ioos:station:USF.COMPS:NFB:1,2014-05-28T19:54:00Z,25.0840,-81.0960,6.0,5.28,140.43,6.56,'1111122,1111122,1111122' 
COMPS,ioos:station:USF.COMPS:NFB:1,2014-05-28T20:00:00Z,25.0840,-81.0960,6.0,5.54,139.03,6.95,'1111122,1111122,1111122' 
COMPS,ioos:station:USF.COMPS:NFB:1,2014-05-28T20:06:00Z,25.0840,-81.0960,6.0,6.25,137.76,6.95,'1111122,1111122,1111122' 
COMPS,ioos:station:USF.COMPS:NFB:1,2014-05-28T20:12:00Z,25.0840,-81.0960,6.0,5.4,139.37,6.17,'1111122,1111122,1111122' 
COMPS,ioos:station:USF.COMPS:NFB:1,2014-05-28T20:18:00Z,25.0840,-81.0960,6.0,5.19,130.55,6.27,'1111122,1111122,1111122' 
COMPS,ioos:station:USF.COMPS:NFB:1,2014-05-28T20:24:00Z,25.0840,-81.0960,6.0,5.44,129.37,6.27,'1111122,1111122,1111122' 
COMPS,ioos:station:USF.COMPS:NFB:1,2014-05-28T20:30:00Z,25.0840,-81.0960,6.0,4.82,131.84,5.97,'1111122,1111122,1111122' 
COMPS,ioos:station:USF.COMPS:NFB:1,2014-05-28T20:36:00Z,25.0840,-81.0960,6.0,5.17,132.0,5.97,'1111122,1111122,1111122' 
COMPS,ioos:station:USF.COMPS:NFB:1,2014-05-28T20:42:00Z,25.0840,-81.0960,6.0,5.04,124.4,6.07,'1111122,1111122,1111122' 
COMPS,ioos:station:USF.COMPS:NFB:1,2014-05-28T20:48:00Z,25.0840,-81.0960,6.0,5.13,135.22,6.27,'1111122,1111122,1111122' 
COMPS,ioos:station:USF.COMPS:NFB:1,2014-05-28T20:54:00Z,25.0840,-81.0960,6.0,5.15,141.57,6.17,'1111122,1111122,1111122' 
COMPS,ioos:station:USF.COMPS:NFB:1,2014-05-28T21:00:00Z,25.0840,-81.0960,6.0,5.19,139.43,6.56,'1111122,1111122,1111122' 
COMPS,ioos:station:USF.COMPS:NFB:1,2014-05-28T21:06:00Z,25.0840,-81.0960,6.0,5.95,146.04,7.54,'1111122,1111122,1111122' 
COMPS,ioos:station:USF.COMPS:NFB:1,2014-05-28T21:12:00Z,25.0840,-81.0960,6.0,6.24,150.35,7.54,'1111122,1111122,1111122' 
COMPS,ioos:station:USF.COMPS:NFB:1,2014-05-28T21:18:00Z,25.0840,-81.0960,6.0,6.18,148.97,7.15,'1111122,1111122,1111122' 
COMPS,ioos:station:USF.COMPS:NFB:1,2014-05-28T21:24:00Z,25.0840,-81.0960,6.0,6.59,153.64,7.44,'1111122,1111122,1111122' 
COMPS,ioos:station:USF.COMPS:NFB:1,2014-05-28T21:30:00Z,25.0840,-81.0960,6.0,6.53,160.71,7.54,'1111122,1111122,1111122' 
COMPS,ioos:station:USF.COMPS:NFB:1,2014-05-28T21:36:00Z,25.0840,-81.0960,6.0,6.77,157.2,8.03,'1111122,1111122,1111122' 
COMPS,ioos:station:USF.COMPS:NFB:1,2014-05-28T21:42:00Z,25.0840,-81.0960,6.0,6.71,156.36,7.64,'1111122,1111122,1111122' 
COMPS,ioos:station:USF.COMPS:NFB:1,2014-05-28T21:48:00Z,25.0840,-81.0960,6.0,7.22,158.33,8.62,'1111122,1111122,1111122' 
COMPS,ioos:station:USF.COMPS:NFB:1,2014-05-28T21:54:00Z,25.0840,-81.0960,6.0,6.85,154.78,8.03,'1111122,1111122,1111122' 
COMPS,ioos:station:USF.COMPS:NFB:1,2014-05-28T22:00:00Z,25.0840,-81.0960,6.0,6.63,146.6,7.54,'1111122,1111122,1111122' 
COMPS,ioos:station:USF.COMPS:NFB:1,2014-05-28T22:06:00Z,25.0840,-81.0960,6.0,6.95,146.14,8.52,'1111122,1111122,1111122' 
COMPS,ioos:station:USF.COMPS:NFB:1,2014-05-28T22:12:00Z,25.0840,-81.0960,6.0,6.44,146.84,7.54,'1111122,1111122,1111122' 
COMPS,ioos:station:USF.COMPS:NFB:1,2014-05-28T22:18:00Z,25.0840,-81.0960,6.0,6.01,150.91,6.76,'1111122,1111122,1111122' 
COMPS,ioos:station:USF.COMPS:NFB:1,2014-05-28T22:24:00Z,25.0840,-81.0960,6.0,5.89,150.19,6.95,'1111122,1111122,1111122' 
COMPS,ioos:station:USF.COMPS:NFB:1,2014-05-28T22:30:00Z,25.0840,-81.0960,6.0,5.56,153.15,6.37,'1111122,1111122,1111122' 
COMPS,ioos:station:USF.COMPS:NFB:1,2014-05-28T22:36:00Z,25.0840,-81.0960,6.0,5.15,154.59,6.07,'1111122,1111122,1111122' 
COMPS,ioos:station:USF.COMPS:NFB:1,2014-05-28T22:42:00Z,25.0840,-81.0960,6.0,5.39,155.25,6.07,'1111122,1111122,1111122' 
COMPS,ioos:station:USF.COMPS:NFB:1,2014-05-28T22:48:00Z,25.0840,-81.0960,6.0,5.24,148.87,6.17,'1111122,1111122,1111122' 
COMPS,ioos:station:USF.COMPS:NFB:1,2014-05-28T22:54:00Z,25.0840,-81.0960,6.0,5.53,155.4,6.37,'1111122,1111122,1111122' 
COMPS,ioos:station:USF.COMPS:NFB:1,2014-05-28T23:00:00Z,25.0840,-81.0960,6.0,5.17,150.65,6.17,'1111122,1111122,1111122' 
COMPS,ioos:station:USF.COMPS:NFB:1,2014-05-28T23:06:00Z,25.0840,-81.0960,6.0,5.29,147.04,6.27,'1111122,1111122,1111122' 
COMPS,ioos:station:USF.COMPS:NFB:1,2014-05-28T23:12:00Z,25.0840,-81.0960,6.0,5.5,145.79,6.37,'1111122,1111122,1111122' 
COMPS,ioos:station:USF.COMPS:NFB:1,2014-05-28T23:18:00Z,25.0840,-81.0960,6.0,5.61,139.96,6.66,'1111122,1111122,1111122' 
COMPS,ioos:station:USF.COMPS:NFB:1,2014-05-28T23:24:00Z,25.0840,-81.0960,6.0,5.47,144.88,6.46,'1111122,1111122,1111122' 
COMPS,ioos:station:USF.COMPS:NFB:1,2014-05-28T23:30:00Z,25.0840,-81.0960,6.0,5.37,140.72,6.37,'1111122,1111122,1111122' 
COMPS,ioos:station:USF.COMPS:NFB:1,2014-05-28T23:36:00Z,25.0840,-81.0960,6.0,5.69,141.08,6.66,'1111122,1111122,1111122' 
COMPS,ioos:station:USF.COMPS:NFB:1,2014-05-28T23:42:00Z,25.0840,-81.0960,6.0,5.98,138.1,7.54,'1111122,1111122,1111122' 
COMPS,ioos:station:USF.COMPS:NFB:1,2014-05-28T23:48:00Z,25.0840,-81.0960,6.0,6.0,141.75,7.25,'1111122,1111122,1111122' 
COMPS,ioos:station:USF.COMPS:NFB:1,2014-05-28T23:54:00Z,25.0840,-81.0960,6.0,5.5,138.69,6.56,'1111122,1111122,1111122' 
COMPS,ioos:station:USF.COMPS:NFB:1,2014-05-29T00:00:00Z,25.0840,-81.0960,6.0,5.88,134.77,6.66,'1111122,1111122,1111122' 
COMPS,ioos:station:USF.COMPS:NFB:1,2014-05-29T00:06:00Z,25.0840,-81.0960,6.0,5.74,138.31,6.95,'1111122,1111122,1111122' 
COMPS,ioos:station:USF.COMPS:NFB:1,2014-05-29T00:12:00Z,25.0840,-81.0960,6.0,5.73,139.07,7.05,'1111122,1111122,1111122' 
COMPS,ioos:station:USF.COMPS:NFB:1,2014-05-29T00:18:00Z,25.0840,-81.0960,6.0,5.43,140.44,6.27,'1111122,1111122,1111122' 
COMPS,ioos:station:USF.COMPS:NFB:1,2014-05-29T00:24:00Z,25.0840,-81.0960,6.0,5.4,141.49,6.66,'1111122,1111122,1111122' 
COMPS,ioos:station:USF.COMPS:NFB:1,2014-05-29T00:30:00Z,25.0840,-81.0960,6.0,5.37,141.99,6.37,'1111122,1111122,1111122' 
COMPS,ioos:station:USF.COMPS:NFB:1,2014-05-29T00:36:00Z,25.0840,-81.0960,6.0,5.32,134.63,6.56,'1111122,1111122,1111122' 
COMPS,ioos:station:USF.COMPS:NFB:1,2014-05-29T00:42:00Z,25.0840,-81.0960,6.0,5.46,132.51,6.27,'1111122,1111122,1111122' 
COMPS,ioos:station:USF.COMPS:NFB:1,2014-05-29T00:48:00Z,25.0840,-81.0960,6.0,5.49,139.43,6.37,'1111122,1111122,1111122' 
COMPS,ioos:station:USF.COMPS:NFB:1,2014-05-29T00:54:00Z,25.0840,-81.0960,6.0,6.03,141.33,6.95,'1111122,1111122,1111122' 
COMPS,ioos:station:USF.COMPS:NFB:1,2014-05-29T01:00:00Z,25.0840,-81.0960,6.0,5.89,139.17,7.05,'1111122,1111122,1111122' 
COMPS,ioos:station:USF.COMPS:NFB:1,2014-05-29T01:06:00Z,25.0840,-81.0960,6.0,5.78,140.91,6.66,'1111122,1111122,1111122' 
COMPS,ioos:station:USF.COMPS:NFB:1,2014-05-29T01:12:00Z,25.0840,-81.0960,6.0,6.0,139.76,7.15,'1111122,1111122,1111122' 
COMPS,ioos:station:USF.COMPS:NFB:1,2014-05-29T01:18:00Z,25.0840,-81.0960,6.0,5.94,139.22,7.05,'1111122,1111122,1111122' 
COMPS,ioos:station:USF.COMPS:NFB:1,2014-05-29T01:24:00Z,25.0840,-81.0960,6.0,6.02,134.36,6.85,'1111122,1111122,1111122' 
COMPS,ioos:station:USF.COMPS:NFB:1,2014-05-29T01:30:00Z,25.0840,-81.0960,6.0,6.16,132.27,7.25,'1111122,1111122,1111122' 
COMPS,ioos:station:USF.COMPS:NFB:1,2014-05-29T01:36:00Z,25.0840,-81.0960,6.0,5.81,129.48,6.85,'1111122,1111122,1111122' 
COMPS,ioos:station:USF.COMPS:NFB:1,2014-05-29T01:42:00Z,25.0840,-81.0960,6.0,5.96,135.63,7.15,'1111122,1111122,1111122' 
COMPS,ioos:station:USF.COMPS:NFB:1,2014-05-29T01:48:00Z,25.0840,-81.0960,6.0,6.31,135.53,7.64,'1111122,1111122,1111122' 
COMPS,ioos:station:USF.COMPS:NFB:1,2014-05-29T01:54:00Z,25.0840,-81.0960,6.0,6.28,133.26,7.35,'1111122,1111122,1111122' 
COMPS,ioos:station:USF.COMPS:NFB:1,2014-05-29T02:00:00Z,25.0840,-81.0960,6.0,5.85,125.98,7.05,'1111122,1111122,1111122' 
COMPS,ioos:station:USF.COMPS:NFB:1,2014-05-29T02:06:00Z,25.0840,-81.0960,6.0,6.16,130.35,7.35,'1111122,1111122,1111122' 
COMPS,ioos:station:USF.COMPS:NFB:1,2014-05-29T02:12:00Z,25.0840,-81.0960,6.0,6.68,136.09,7.54,'1111122,1111122,1111122' 
COMPS,ioos:station:USF.COMPS:NFB:1,2014-05-29T02:18:00Z,25.0840,-81.0960,6.0,6.56,132.27,7.93,'1111122,1111122,1111122' 
COMPS,ioos:station:USF.COMPS:NFB:1,2014-05-29T02:24:00Z,25.0840,-81.0960,6.0,6.73,134.0,7.83,'1111122,1111122,1111122' 
COMPS,ioos:station:USF.COMPS:NFB:1,2014-05-29T02:30:00Z,25.0840,-81.0960,6.0,6.6,130.53,7.35,'1111122,1111122,1111122' 
COMPS,ioos:station:USF.COMPS:NFB:1,2014-05-29T02:36:00Z,25.0840,-81.0960,6.0,6.12,125.4,7.35,'1111122,1111122,1111122' 
COMPS,ioos:station:USF.COMPS:NFB:1,2014-05-29T02:42:00Z,25.0840,-81.0960,6.0,5.69,124.84,7.15,'1111122,1111122,1111122' 
COMPS,ioos:station:USF.COMPS:NFB:1,2014-05-29T02:48:00Z,25.0840,-81.0960,6.0,5.37,119.47,6.37,'1111122,1111122,1111122' 
COMPS,ioos:station:USF.COMPS:NFB:1,2014-05-29T02:54:00Z,25.0840,-81.0960,6.0,5.22,116.42,6.37,'1111122,1111122,1111122' 
COMPS,ioos:station:USF.COMPS:NFB:1,2014-05-29T03:00:00Z,25.0840,-81.0960,6.0,5.7,116.98,6.37,'1111122,1111122,1111122' 
COMPS,ioos:station:USF.COMPS:NFB:1,2014-05-29T03:06:00Z,25.0840,-81.0960,6.0,5.26,120.64,6.85,'1111122,1111122,1111122' 
COMPS,ioos:station:USF.COMPS:NFB:1,2014-05-29T03:12:00Z,25.0840,-81.0960,6.0,6.05,123.11,7.35,'1111122,1111122,1111122' 
COMPS,ioos:station:USF.COMPS:NFB:1,2014-05-29T03:18:00Z,25.0840,-81.0960,6.0,5.96,126.36,7.05,'1111122,1111122,1111122' 
COMPS,ioos:station:USF.COMPS:NFB:1,2014-05-29T03:24:00Z,25.0840,-81.0960,6.0,5.91,126.34,7.15,'1111122,1111122,1111122' 
COMPS,ioos:station:USF.COMPS:NFB:1,2014-05-29T03:30:00Z,25.0840,-81.0960,6.0,5.98,129.38,7.25,'1111122,1111122,1111122' 
COMPS,ioos:station:USF.COMPS:NFB:1,2014-05-29T03:36:00Z,25.0840,-81.0960,6.0,6.2,134.64,7.93,'1111122,1111122,1111122' 
COMPS,ioos:station:USF.COMPS:NFB:1,2014-05-29T03:42:00Z,25.0840,-81.0960,6.0,6.51,138.97,7.54,'1111122,1111122,1111122' 
COMPS,ioos:station:USF.COMPS:NFB:1,2014-05-29T03:48:00Z,25.0840,-81.0960,6.0,6.78,139.61,8.13,'1111122,1111122,1111122' 
COMPS,ioos:station:USF.COMPS:NFB:1,2014-05-29T03:54:00Z,25.0840,-81.0960,6.0,6.31,140.46,7.64,'1111122,1111122,1111122' 
COMPS,ioos:station:USF.COMPS:NFB:1,2014-05-29T04:00:00Z,25.0840,-81.0960,6.0,6.16,136.92,7.15,'1111122,1111122,1111122' 
COMPS,ioos:station:USF.COMPS:NFB:1,2014-05-29T04:06:00Z,25.0840,-81.0960,6.0,5.7,137.24,6.66,'1111122,1111122,1111122' 
COMPS,ioos:station:USF.COMPS:NFB:1,2014-05-29T04:12:00Z,25.0840,-81.0960,6.0,5.93,130.49,6.85,'1111122,1111122,1111122' 
COMPS,ioos:station:USF.COMPS:NFB:1,2014-05-29T04:18:00Z,25.0840,-81.0960,6.0,6.37,136.43,6.95,'1111122,1111122,1111122' 
COMPS,ioos:station:USF.COMPS:NFB:1,2014-05-29T04:24:00Z,25.0840,-81.0960,6.0,7.03,139.8,7.93,'1111122,1111122,1111122' 
COMPS,ioos:station:USF.COMPS:NFB:1,2014-05-29T04:30:00Z,25.0840,-81.0960,6.0,6.93,136.99,8.42,'1111122,1111122,1111122' 
COMPS,ioos:station:USF.COMPS:NFB:1,2014-05-29T04:36:00Z,25.0840,-81.0960,6.0,6.42,138.13,7.44,'1111122,1111122,1111122' 
COMPS,ioos:station:USF.COMPS:NFB:1,2014-05-29T04:42:00Z,25.0840,-81.0960,6.0,6.38,136.87,7.83,'1111122,1111122,1111122' 
COMPS,ioos:station:USF.COMPS:NFB:1,2014-05-29T04:48:00Z,25.0840,-81.0960,6.0,6.62,138.54,7.74,'1111122,1111122,1111122' 
COMPS,ioos:station:USF.COMPS:NFB:1,2014-05-29T04:54:00Z,25.0840,-81.0960,6.0,6.58,137.56,8.42,'1111122,1111122,1111122' 
COMPS,ioos:station:USF.COMPS:NFB:1,2014-05-29T05:00:00Z,25.0840,-81.0960,6.0,6.74,137.74,7.54,'1111122,1111122,1111122' 
COMPS,ioos:station:USF.COMPS:NFB:1,2014-05-29T05:06:00Z,25.0840,-81.0960,6.0,6.62,139.63,7.83,'1111122,1111122,1111122' 
COMPS,ioos:station:USF.COMPS:NFB:1,2014-05-29T05:12:00Z,25.0840,-81.0960,6.0,6.53,140.19,7.44,'1111122,1111122,1111122' 
COMPS,ioos:station:USF.COMPS:NFB:1,2014-05-29T05:18:00Z,25.0840,-81.0960,6.0,6.73,142.84,8.03,'1111122,1111122,1111122' 
COMPS,ioos:station:USF.COMPS:NFB:1,2014-05-29T05:24:00Z,25.0840,-81.0960,6.0,7.23,142.02,8.33,'1111122,1111122,1111122' 
COMPS,ioos:station:USF.COMPS:NFB:1,2014-05-29T05:30:00Z,25.0840,-81.0960,6.0,6.85,141.86,8.52,'1111122,1111122,1111122' 
COMPS,ioos:station:USF.COMPS:NFB:1,2014-05-29T05:36:00Z,25.0840,-81.0960,6.0,6.56,139.7,7.74,'1111122,1111122,1111122' 
COMPS,ioos:station:USF.COMPS:NFB:1,2014-05-29T05:42:00Z,25.0840,-81.0960,6.0,6.83,139.23,8.03,'1111122,1111122,1111122' 
COMPS,ioos:station:USF.COMPS:NFB:1,2014-05-29T05:48:00Z,25.0840,-81.0960,6.0,6.24,139.42,7.44,'1111122,1111122,1111122' 
COMPS,ioos:station:USF.COMPS:NFB:1,2014-05-29T05:54:00Z,25.0840,-81.0960,6.0,6.13,141.29,7.44,'1111122,1111122,1111122' 
COMPS,ioos:station:USF.COMPS:NFB:1,2014-05-29T06:00:00Z,25.0840,-81.0960,6.0,6.04,145.05,7.44,'1111122,1111122,1111122' 
COMPS,ioos:station:USF.COMPS:NFB:1,2014-05-29T06:06:00Z,25.0840,-81.0960,6.0,6.21,137.41,7.35,'1111122,1111122,1111122' 
COMPS,ioos:station:USF.COMPS:NFB:1,2014-05-29T06:12:00Z,25.0840,-81.0960,6.0,6.14,140.56,7.35,'1111122,1111122,1111122' 
COMPS,ioos:station:USF.COMPS:NFB:1,2014-05-29T06:18:00Z,25.0840,-81.0960,6.0,6.37,135.7,7.54,'1111122,1111122,1111122' 
COMPS,ioos:station:USF.COMPS:NFB:1,2014-05-29T06:24:00Z,25.0840,-81.0960,6.0,6.83,140.84,7.93,'1111122,1111122,1111122' 
COMPS,ioos:station:USF.COMPS:NFB:1,2014-05-29T06:30:00Z,25.0840,-81.0960,6.0,7.07,141.7,8.23,'1111122,1111122,1111122' 
COMPS,ioos:station:USF.COMPS:NFB:1,2014-05-29T06:36:00Z,25.0840,-81.0960,6.0,6.76,142.8,8.03,'1111122,1111122,1111122' 
COMPS,ioos:station:USF.COMPS:NFB:1,2014-05-29T06:42:00Z,25.0840,-81.0960,6.0,6.68,142.31,7.83,'1111122,1111122,1111122' 
COMPS,ioos:station:USF.COMPS:NFB:1,2014-05-29T06:48:00Z,25.0840,-81.0960,6.0,6.28,138.64,7.74,'1111122,1111122,1111122' 
COMPS,ioos:station:USF.COMPS:NFB:1,2014-05-29T06:54:00Z,25.0840,-81.0960,6.0,5.92,141.75,7.05,'1111122,1111122,1111122' 
COMPS,ioos:station:USF.COMPS:NFB:1,2014-05-29T07:00:00Z,25.0840,-81.0960,6.0,6.06,142.22,7.44,'1111122,1111122,1111122' 
COMPS,ioos:station:USF.COMPS:NFB:1,2014-05-29T07:06:00Z,25.0840,-81.0960,6.0,6.13,142.8,7.35,'1111122,1111122,1111122' 
COMPS,ioos:station:USF.COMPS:NFB:1,2014-05-29T07:12:00Z,25.0840,-81.0960,6.0,5.89,138.14,7.05,'1111122,1111122,1111122' 
COMPS,ioos:station:USF.COMPS:NFB:1,2014-05-29T07:18:00Z,25.0840,-81.0960,6.0,5.68,138.64,6.85,'1111122,1111122,1111122' 
COMPS,ioos:station:USF.COMPS:NFB:1,2014-05-29T07:24:00Z,25.0840,-81.0960,6.0,5.62,132.68,7.64,'1111122,1111122,1111122' 
COMPS,ioos:station:USF.COMPS:NFB:1,2014-05-29T07:30:00Z,25.0840,-81.0960,6.0,5.5,136.42,6.27,'1111122,1111122,1111122' 
COMPS,ioos:station:USF.COMPS:NFB:1,2014-05-29T07:36:00Z,25.0840,-81.0960,6.0,5.23,135.85,6.85,'1111122,1111122,1111122' 
COMPS,ioos:station:USF.COMPS:NFB:1,2014-05-29T07:42:00Z,25.0840,-81.0960,6.0,6.38,128.8,7.44,'1111122,1111122,1111122' 
COMPS,ioos:station:USF.COMPS:NFB:1,2014-05-29T07:48:00Z,25.0840,-81.0960,6.0,6.08,139.37,7.44,'1111122,1111122,1111122' 
COMPS,ioos:station:USF.COMPS:NFB:1,2014-05-29T07:54:00Z,25.0840,-81.0960,6.0,5.44,138.22,6.76,'1111122,1111122,1111122' 
COMPS,ioos:station:USF.COMPS:NFB:1,2014-05-29T08:00:00Z,25.0840,-81.0960,6.0,6.12,137.66,7.44,'1111122,1111122,1111122' 
COMPS,ioos:station:USF.COMPS:NFB:1,2014-05-29T08:06:00Z,25.0840,-81.0960,6.0,6.08,136.86,7.44,'1111122,1111122,1111122' 
COMPS,ioos:station:USF.COMPS:NFB:1,2014-05-29T08:12:00Z,25.0840,-81.0960,6.0,5.61,138.25,6.56,'1111122,1111122,1111122' 
COMPS,ioos:station:USF.COMPS:NFB:1,2014-05-29T08:18:00Z,25.0840,-81.0960,6.0,5.7,137.6,7.44,'1111122,1111122,1111122' 
COMPS,ioos:station:USF.COMPS:NFB:1,2014-05-29T08:24:00Z,25.0840,-81.0960,6.0,5.86,135.09,6.66,'1111122,1111122,1111122' 
COMPS,ioos:station:USF.COMPS:NFB:1,2014-05-29T08:30:00Z,25.0840,-81.0960,6.0,5.7,135.23,6.76,'1111122,1111122,1111122' 
COMPS,ioos:station:USF.COMPS:NFB:1,2014-05-29T08:36:00Z,25.0840,-81.0960,6.0,5.61,136.73,6.85,'1111122,1111122,1111122' 
COMPS,ioos:station:USF.COMPS:NFB:1,2014-05-29T08:42:00Z,25.0840,-81.0960,6.0,5.92,133.58,6.95,'1111122,1111122,1111122' 
COMPS,ioos:station:USF.COMPS:NFB:1,2014-05-29T08:48:00Z,25.0840,-81.0960,6.0,5.96,135.25,6.85,'1111122,1111122,1111122' 
COMPS,ioos:station:USF.COMPS:NFB:1,2014-05-29T08:54:00Z,25.0840,-81.0960,6.0,5.5,124.7,6.56,'1111122,1111122,1111122' 
COMPS,ioos:station:USF.COMPS:NFB:1,2014-05-29T09:00:00Z,25.0840,-81.0960,6.0,5.88,131.73,7.05,'1111122,1111122,1111122' 
COMPS,ioos:station:USF.COMPS:NFB:1,2014-05-29T09:06:00Z,25.0840,-81.0960,6.0,5.41,132.66,6.27,'1111122,1111122,1111122' 
COMPS,ioos:station:USF.COMPS:NFB:1,2014-05-29T09:12:00Z,25.0840,-81.0960,6.0,5.68,130.85,6.95,'1111122,1111122,1111122' 
COMPS,ioos:station:USF.COMPS:NFB:1,2014-05-29T09:18:00Z,25.0840,-81.0960,6.0,5.47,125.47,6.46,'1111122,1111122,1111122' 
COMPS,ioos:station:USF.COMPS:NFB:1,2014-05-29T09:24:00Z,25.0840,-81.0960,6.0,5.56,132.88,6.66,'1111122,1111122,1111122' 
COMPS,ioos:station:USF.COMPS:NFB:1,2014-05-29T09:30:00Z,25.0840,-81.0960,6.0,6.41,145.48,7.83,'1111122,1111122,1111122' 
COMPS,ioos:station:USF.COMPS:NFB:1,2014-05-29T09:36:00Z,25.0840,-81.0960,6.0,6.19,146.67,7.15,'1111122,1111122,1111122' 
COMPS,ioos:station:USF.COMPS:NFB:1,2014-05-29T09:42:00Z,25.0840,-81.0960,6.0,5.33,137.97,6.17,'1111122,1111122,1111122' 
COMPS,ioos:station:USF.COMPS:NFB:1,2014-05-29T09:48:00Z,25.0840,-81.0960,6.0,4.93,129.28,6.27,'1111122,1111122,1111122' 
COMPS,ioos:station:USF.COMPS:NFB:1,2014-05-29T09:54:00Z,25.0840,-81.0960,6.0,6.51,136.34,8.62,'1111122,1111122,1111122' 
COMPS,ioos:station:USF.COMPS:NFB:1,2014-05-29T10:00:00Z,25.0840,-81.0960,6.0,7.45,144.93,8.52,'1111122,1111122,1111122' 
COMPS,ioos:station:USF.COMPS:NFB:1,2014-05-29T10:06:00Z,25.0840,-81.0960,6.0,7.3,147.39,8.52,'1111122,1111122,1111122' 
COMPS,ioos:station:USF.COMPS:NFB:1,2014-05-29T10:12:00Z,25.0840,-81.0960,6.0,7.28,140.95,8.52,'1111122,1111122,1111122' 
COMPS,ioos:station:USF.COMPS:NFB:1,2014-05-29T10:18:00Z,25.0840,-81.0960,6.0,7.23,139.94,8.62,'1111122,1111122,1111122' 
COMPS,ioos:station:USF.COMPS:NFB:1,2014-05-29T10:24:00Z,25.0840,-81.0960,6.0,6.95,139.81,7.93,'1111122,1111122,1111122' 
COMPS,ioos:station:USF.COMPS:NFB:1,2014-05-29T10:30:00Z,25.0840,-81.0960,6.0,6.7,141.74,8.13,'1111122,1111122,1111122' 
COMPS,ioos:station:USF.COMPS:NFB:1,2014-05-29T10:36:00Z,25.0840,-81.0960,6.0,7.16,149.6,8.72,'1111122,1111122,1111122' 